,,Stat5,,Stat1,,Stat2,,Stat3,,Stat4,,Wind1,,Wind1,
time,status,PA1M_AVG,status,PR1M_SUM,status,RH1M_AVG,status,SR1M_AVG,status,TA1M_AVG,status,W1dAve1m,status,W1sAve1m,
2001-04-27, 00:00:00,VALID,918.526,VALID,0,VALID,95.909,VALID,-0.0849042,VALID,19.9977,VALID,91,VALID,0.826982,
2001-04-27, 00:01:00,VALID,918.526,VALID,0,VALID,95.8764,VALID,-0.101885,VALID,19.9915,VALID,90,VALID,0.855469,
2001-04-27, 00:02:00,VALID,918.524,VALID,0,VALID,95.8624,VALID,-0.101885,VALID,19.995,VALID,88,VALID,0.768914,
2001-04-27, 00:03:00,VALID,918.536,VALID,0,VALID,95.7963,VALID,-0.101885,VALID,19.9984,VALID,86,VALID,0.574436,
2001-04-27, 00:04:00,VALID,918.533,VALID,0,VALID,95.7442,VALID,-0.101885,VALID,19.9982,VALID,79,VALID,0.474451,
2001-04-27, 00:05:00,VALID,918.537,VALID,0,VALID,95.659,VALID,-0.0849042,VALID,20.0183,VALID,74,VALID,0.585227,
2001-04-27, 00:06:00,VALID,918.525,VALID,0,VALID,95.4352,VALID,-0.0679233,VALID,20.0439,VALID,69,VALID,0.496394,
2001-04-27, 00:07:00,VALID,918.51,VALID,0,VALID,95.3119,VALID,-0.0849042,VALID,20.0733,VALID,71,VALID,0.385491,
2001-04-27, 00:08:00,VALID,918.499,VALID,0,VALID,95.2457,VALID,-0.0509425,VALID,20.0814,VALID,342,VALID,0.420312,
2001-04-27, 00:09:00,VALID,918.503,VALID,0,VALID,95.172,VALID,0.0169808,VALID,20.1068,VALID,329,VALID,0.00822368,
2001-04-27, 00:10:00,VALID,918.503,VALID,0,VALID,95.2406,VALID,0,VALID,20.1165,VALID,329,VALID,0.00120192,
2001-04-27, 00:11:00,VALID,918.48,VALID,0,VALID,95.275,VALID,0,VALID,20.1334,VALID,329,VALID,0.0394737,
2001-04-27, 00:12:00,VALID,918.464,VALID,0,VALID,95.3068,VALID,0,VALID,20.1331,VALID,329,VALID,0.0119141,
2001-04-27, 00:13:00,VALID,918.447,VALID,0,VALID,95.4428,VALID,0,VALID,20.1361,VALID,329,VALID,0.199219,
2001-04-27, 00:14:00,VALID,918.43,VALID,0,VALID,95.5039,VALID,0,VALID,20.1431,VALID,329,VALID,0.0556891,
2001-04-27, 00:15:00,VALID,918.402,VALID,0,VALID,95.5293,VALID,0,VALID,20.1396,VALID,329,VALID,0,
2001-04-27, 00:16:00,VALID,918.38,VALID,0,VALID,95.5204,VALID,-0.0509425,VALID,20.1299,VALID,338,VALID,0.267969,
2001-04-27, 00:17:00,VALID,918.353,VALID,0,VALID,95.2521,VALID,0.0169808,VALID,20.1172,VALID,342,VALID,0.406661,
2001-04-27, 00:18:00,VALID,918.337,VALID,0,VALID,95.0499,VALID,-0.0169808,VALID,20.1334,VALID,311,VALID,0.254729,
2001-04-27, 00:19:00,VALID,918.322,VALID,0,VALID,95.1008,VALID,-0.0339617,VALID,20.1361,VALID,298,VALID,0.310855,
2001-04-27, 00:20:00,VALID,918.308,VALID,0,VALID,95.1059,VALID,-0.0169808,VALID,20.1493,VALID,290,VALID,0.191992,
2001-04-27, 00:21:00,VALID,918.289,VALID,0,VALID,95.2279,VALID,0,VALID,20.1391,VALID,282,VALID,0.434416,
2001-04-27, 00:22:00,VALID,918.288,VALID,0,VALID,95.3119,VALID,0.0169808,VALID,20.1364,VALID,275,VALID,0.230769,
2001-04-27, 00:23:00,VALID,918.267,VALID,0,VALID,95.3144,VALID,-0.0169808,VALID,20.1304,VALID,283,VALID,0.247738,
2001-04-27, 00:24:00,VALID,918.242,VALID,0,VALID,95.336,VALID,-0.0849042,VALID,20.1185,VALID,280,VALID,0.238672,
2001-04-27, 00:25:00,VALID,918.21,VALID,0,VALID,95.4619,VALID,-0.0679233,VALID,20.1185,VALID,267,VALID,0.0279605,
2001-04-27, 00:26:00,VALID,918.195,VALID,0,VALID,95.5687,VALID,-0.101885,VALID,20.0956,VALID,252,VALID,0.00493421,
2001-04-27, 00:27:00,VALID,918.184,VALID,0,VALID,95.5916,VALID,-0.101885,VALID,20.0926,VALID,252,VALID,0,
2001-04-27, 00:28:00,VALID,918.167,VALID,0,VALID,95.7188,VALID,-0.0849042,VALID,20.0929,VALID,252,VALID,0,
2001-04-27, 00:29:00,VALID,918.133,VALID,0,VALID,95.8052,VALID,-0.0849042,VALID,20.0862,VALID,252,VALID,0,
2001-04-27, 00:30:00,VALID,918.107,VALID,0,VALID,96.0189,VALID,-0.101885,VALID,20.0956,VALID,216,VALID,0.100962,
2001-04-27, 00:31:00,VALID,918.095,VALID,0,VALID,96.1765,VALID,-0.101885,VALID,20.0991,VALID,87,VALID,0.317229,
2001-04-27, 00:32:00,VALID,918.075,VALID,0,VALID,96.2058,VALID,-0.101885,VALID,20.0795,VALID,105,VALID,0.164453,
2001-04-27, 00:33:00,VALID,918.069,VALID,0,VALID,96.1918,VALID,-0.101885,VALID,20.0571,VALID,125,VALID,0.365954,
2001-04-27, 00:34:00,VALID,918.04,VALID,0,VALID,96.1397,VALID,-0.118866,VALID,20.0444,VALID,119,VALID,0.332031,
2001-04-27, 00:35:00,VALID,918.018,VALID,0,VALID,95.9451,VALID,-0.101885,VALID,20.028,VALID,122,VALID,0.337377,
2001-04-27, 00:36:00,VALID,918.007,VALID,0,VALID,95.6679,VALID,-0.101885,VALID,20.031,VALID,132,VALID,0.0980469,
2001-04-27, 00:37:00,VALID,917.991,VALID,0,VALID,95.7238,VALID,-0.101885,VALID,20.0442,VALID,132,VALID,0.0415296,
2001-04-27, 00:38:00,VALID,917.983,VALID,0,VALID,95.7912,VALID,-0.0679233,VALID,20.0598,VALID,132,VALID,0,
2001-04-27, 00:39:00,VALID,917.954,VALID,0,VALID,95.9426,VALID,0,VALID,20.0618,VALID,132,VALID,0,
2001-04-27, 00:40:00,VALID,917.921,VALID,0,VALID,96.0939,VALID,0,VALID,20.0518,VALID,132,VALID,0.00546875,
2001-04-27, 00:41:00,VALID,917.899,VALID,0,VALID,96.1804,VALID,0.0169808,VALID,20.0524,VALID,132,VALID,0.124794,
2001-04-27, 00:42:00,VALID,917.875,VALID,0,VALID,96.113,VALID,0,VALID,20.0357,VALID,132,VALID,0,
2001-04-27, 00:43:00,VALID,917.865,VALID,0,VALID,96.0367,VALID,0.0169808,VALID,19.9997,VALID,132,VALID,0,
2001-04-27, 00:44:00,VALID,917.839,VALID,0,VALID,96.1791,VALID,0,VALID,20.0036,VALID,132,VALID,0,
2001-04-27, 00:45:00,VALID,917.827,VALID,0,VALID,96.1231,VALID,0,VALID,19.9875,VALID,132,VALID,0,
2001-04-27, 00:46:00,VALID,917.803,VALID,0,VALID,96.01,VALID,0,VALID,19.9813,VALID,132,VALID,0,
2001-04-27, 00:47:00,VALID,917.788,VALID,0,VALID,96.0557,VALID,0,VALID,19.9785,VALID,132,VALID,0,
2001-04-27, 00:48:00,VALID,917.778,VALID,0,VALID,96.0176,VALID,0.0169808,VALID,19.978,VALID,132,VALID,0,
2001-04-27, 00:49:00,VALID,917.755,VALID,0,VALID,95.9998,VALID,0,VALID,19.9746,VALID,132,VALID,0,
2001-04-27, 00:50:00,VALID,917.73,VALID,0,VALID,95.9909,VALID,0,VALID,19.9778,VALID,132,VALID,0.041324,
2001-04-27, 00:51:00,VALID,917.706,VALID,0,VALID,95.7798,VALID,0.0169808,VALID,19.9783,VALID,132,VALID,0.303248,
2001-04-27, 00:52:00,VALID,917.681,VALID,0,VALID,95.8205,VALID,0,VALID,19.9775,VALID,132,VALID,0.0464844,
2001-04-27, 00:53:00,VALID,917.65,VALID,0,VALID,95.8726,VALID,0,VALID,19.9942,VALID,132,VALID,0,
2001-04-27, 00:54:00,VALID,917.636,VALID,0,VALID,95.9222,VALID,0,VALID,19.9977,VALID,132,VALID,0,
2001-04-27, 00:55:00,VALID,917.602,VALID,0,VALID,95.7251,VALID,0,VALID,20.0081,VALID,132,VALID,0,
2001-04-27, 00:56:00,VALID,917.586,VALID,0,VALID,95.5242,VALID,0,VALID,19.9984,VALID,135,VALID,0,
2001-04-27, 00:57:00,VALID,917.57,VALID,0,VALID,95.2521,VALID,0.0169808,VALID,19.9912,VALID,144,VALID,0,
2001-04-27, 00:58:00,VALID,917.551,VALID,0,VALID,95.1033,VALID,0,VALID,20.0213,VALID,143,VALID,0,
2001-04-27, 00:59:00,VALID,917.531,VALID,0,VALID,95.1338,VALID,0.0169808,VALID,20.0529,VALID,141,VALID,0.372533,
2001-04-27, 01:00:00,VALID,917.52,VALID,0,VALID,95.1097,VALID,0,VALID,20.073,VALID,148,VALID,0.327734,
2001-04-27, 01:01:00,VALID,917.497,VALID,0,VALID,94.9965,VALID,0,VALID,20.0598,VALID,155,VALID,0.540913,
2001-04-27, 01:02:00,VALID,917.472,VALID,0,VALID,94.9901,VALID,0,VALID,20.0407,VALID,156,VALID,0.644631,
2001-04-27, 01:03:00,VALID,917.445,VALID,0,VALID,94.9698,VALID,0,VALID,20.031,VALID,159,VALID,0.591694,
2001-04-27, 01:04:00,VALID,917.42,VALID,0,VALID,95.1059,VALID,0,VALID,20.0178,VALID,160,VALID,0.371875,
2001-04-27, 01:05:00,VALID,917.415,VALID,0,VALID,95.3602,VALID,0.0169808,VALID,20.0041,VALID,160,VALID,0.399671,
2001-04-27, 01:06:00,VALID,917.389,VALID,0,VALID,95.5013,VALID,0,VALID,20.0017,VALID,159,VALID,0.380962,
2001-04-27, 01:07:00,VALID,917.381,VALID,0,VALID,95.3347,VALID,0,VALID,19.9656,VALID,158,VALID,0.550781,
2001-04-27, 01:08:00,VALID,917.349,VALID,0,VALID,95.1529,VALID,0,VALID,19.9659,VALID,172,VALID,0.540039,
2001-04-27, 01:09:00,VALID,917.34,VALID,0,VALID,95.1999,VALID,0.0169808,VALID,19.9823,VALID,193,VALID,0.481291,
2001-04-27, 01:10:00,VALID,917.316,VALID,0,VALID,95.3411,VALID,0.0169808,VALID,20.0044,VALID,208,VALID,0.446514,
2001-04-27, 01:11:00,VALID,917.31,VALID,0,VALID,95.7505,VALID,0.0169808,VALID,20.031,VALID,209,VALID,0.706414,
2001-04-27, 01:12:00,VALID,917.297,VALID,0,VALID,95.9527,VALID,0,VALID,20.0141,VALID,220,VALID,0.849414,
2001-04-27, 01:13:00,VALID,917.284,VALID,0,VALID,96.1168,VALID,0,VALID,20.0079,VALID,208,VALID,0.573808,
2001-04-27, 01:14:00,VALID,917.28,VALID,0,VALID,96.2503,VALID,0,VALID,19.9656,VALID,207,VALID,0.261102,
2001-04-27, 01:15:00,VALID,917.266,VALID,0,VALID,96.4359,VALID,-0.0169808,VALID,19.9562,VALID,210,VALID,0.278166,
2001-04-27, 01:16:00,VALID,917.258,VALID,0,VALID,96.6102,VALID,0,VALID,19.9206,VALID,205,VALID,0.629492,
2001-04-27, 01:17:00,VALID,917.233,VALID,0,VALID,96.7297,VALID,0,VALID,19.9211,VALID,208,VALID,0.631168,
2001-04-27, 01:18:00,VALID,917.215,VALID,0,VALID,96.8645,VALID,0,VALID,19.8988,VALID,203,VALID,0.570112,
2001-04-27, 01:19:00,VALID,917.187,VALID,0,VALID,97.0005,VALID,-0.0169808,VALID,19.8891,VALID,193,VALID,0.852385,
2001-04-27, 01:20:00,VALID,917.148,VALID,0,VALID,97.0921,VALID,0,VALID,19.8727,VALID,195,VALID,0.676562,
2001-04-27, 01:21:00,VALID,917.109,VALID,0,VALID,97.2065,VALID,0,VALID,19.8531,VALID,188,VALID,0.738076,
2001-04-27, 01:22:00,VALID,917.071,VALID,0,VALID,97.2828,VALID,-0.0169808,VALID,19.8334,VALID,184,VALID,0.618832,
2001-04-27, 01:23:00,VALID,917.022,VALID,0,VALID,97.3884,VALID,0,VALID,19.8106,VALID,149,VALID,0.435033,
2001-04-27, 01:24:00,VALID,916.984,VALID,0,VALID,97.4761,VALID,0,VALID,19.8016,VALID,117,VALID,0.497656,
2001-04-27, 01:25:00,VALID,916.958,VALID,0,VALID,97.5969,VALID,0,VALID,19.7852,VALID,157,VALID,0.525905,
2001-04-27, 01:26:00,VALID,916.938,VALID,0,VALID,97.6999,VALID,0,VALID,19.7686,VALID,158,VALID,0.176082,
2001-04-27, 01:27:00,VALID,916.921,VALID,0,VALID,97.7444,VALID,0,VALID,19.7591,VALID,152,VALID,0,
2001-04-27, 01:28:00,VALID,916.911,VALID,0,VALID,97.794,VALID,0,VALID,19.7467,VALID,152,VALID,0,
2001-04-27, 01:29:00,VALID,916.896,VALID,0,VALID,97.8347,VALID,-0.0169808,VALID,19.7305,VALID,160,VALID,0.00945724,
2001-04-27, 01:30:00,VALID,916.885,VALID,0,VALID,97.883,VALID,0,VALID,19.7271,VALID,181,VALID,0.550576,
2001-04-27, 01:31:00,VALID,916.865,VALID,0,VALID,97.967,VALID,0,VALID,19.6948,VALID,183,VALID,0.462377,
2001-04-27, 01:32:00,VALID,916.841,VALID,0,VALID,97.9937,VALID,0,VALID,19.7012,VALID,177,VALID,0.0556641,
2001-04-27, 01:33:00,VALID,916.816,VALID,0,VALID,98.0331,VALID,0,VALID,19.6945,VALID,177,VALID,0,
2001-04-27, 01:34:00,VALID,916.788,VALID,0,VALID,98.0865,VALID,0,VALID,19.6975,VALID,180,VALID,0,
2001-04-27, 01:35:00,VALID,916.758,VALID,0,VALID,98.1183,VALID,0,VALID,19.7012,VALID,207,VALID,0,
2001-04-27, 01:36:00,VALID,916.729,VALID,0,VALID,98.1297,VALID,0,VALID,19.6883,VALID,210,VALID,0.387891,
2001-04-27, 01:37:00,VALID,916.722,VALID,0,VALID,98.1399,VALID,0,VALID,19.6913,VALID,218,VALID,0.433388,
2001-04-27, 01:38:00,VALID,916.73,VALID,0,VALID,98.1272,VALID,0,VALID,19.7012,VALID,218,VALID,0.10403,
2001-04-27, 01:39:00,VALID,916.732,VALID,0,VALID,98.0979,VALID,0,VALID,19.701,VALID,218,VALID,0,
2001-04-27, 01:40:00,VALID,916.728,VALID,0,VALID,98.1005,VALID,0.0339617,VALID,19.6918,VALID,218,VALID,0.104297,
2001-04-27, 01:41:00,VALID,916.754,VALID,0,VALID,98.1908,VALID,0.0169808,VALID,19.6948,VALID,218,VALID,0.543174,
2001-04-27, 01:42:00,VALID,916.756,VALID,0,VALID,98.2022,VALID,0.0169808,VALID,19.7005,VALID,222,VALID,0.821114,
2001-04-27, 01:43:00,VALID,916.745,VALID,0,VALID,98.0115,VALID,0.0339617,VALID,19.695,VALID,226,VALID,0.83162,
2001-04-27, 01:44:00,VALID,916.754,VALID,0,VALID,97.8678,VALID,0,VALID,19.7015,VALID,223,VALID,0.81582,
2001-04-27, 01:45:00,VALID,916.745,VALID,0,VALID,97.7444,VALID,0,VALID,19.7136,VALID,223,VALID,0.763158,
2001-04-27, 01:46:00,VALID,916.743,VALID,0,VALID,97.6007,VALID,0,VALID,19.7531,VALID,227,VALID,0.693051,
2001-04-27, 01:47:00,VALID,916.714,VALID,0,VALID,97.4278,VALID,0,VALID,19.7693,VALID,228,VALID,0.931743,
2001-04-27, 01:48:00,VALID,916.688,VALID,0,VALID,97.2816,VALID,-0.0169808,VALID,19.7919,VALID,220,VALID,0.781641,
2001-04-27, 01:49:00,VALID,916.654,VALID,0,VALID,97.1544,VALID,0.0169808,VALID,19.8014,VALID,204,VALID,0.531456,
2001-04-27, 01:50:00,VALID,916.616,VALID,0,VALID,97.0438,VALID,0,VALID,19.8083,VALID,195,VALID,0.208934,
2001-04-27, 01:51:00,VALID,916.588,VALID,0,VALID,96.9891,VALID,0,VALID,19.8145,VALID,149,VALID,0.401316,
2001-04-27, 01:52:00,VALID,916.551,VALID,0,VALID,96.9688,VALID,-0.0169808,VALID,19.7981,VALID,139,VALID,0.292188,
2001-04-27, 01:53:00,VALID,916.542,VALID,0,VALID,97.0222,VALID,0,VALID,19.7817,VALID,160,VALID,0.390831,
2001-04-27, 01:54:00,VALID,916.516,VALID,0,VALID,97.0692,VALID,0.0169808,VALID,19.7745,VALID,177,VALID,0.0226151,
2001-04-27, 01:55:00,VALID,916.493,VALID,0,VALID,97.1252,VALID,0.0169808,VALID,19.7981,VALID,177,VALID,0,
2001-04-27, 01:56:00,VALID,916.472,VALID,0,VALID,97.162,VALID,0.0169808,VALID,19.7912,VALID,177,VALID,0,
2001-04-27, 01:57:00,VALID,916.442,VALID,0,VALID,97.1964,VALID,0.0169808,VALID,19.778,VALID,177,VALID,0,
2001-04-27, 01:58:00,VALID,916.416,VALID,0,VALID,97.2015,VALID,0.0339617,VALID,19.778,VALID,177,VALID,0,
2001-04-27, 01:59:00,VALID,916.402,VALID,0,VALID,97.1773,VALID,0,VALID,19.7648,VALID,177,VALID,0,
2001-04-27, 02:00:00,VALID,916.358,VALID,0,VALID,97.1875,VALID,0.0679233,VALID,19.7422,VALID,146,VALID,0.250781,
2001-04-27, 02:01:00,VALID,916.335,VALID,0,VALID,97.2104,VALID,0.0339617,VALID,19.7228,VALID,130,VALID,0.337993,
2001-04-27, 02:02:00,VALID,916.334,VALID,0,VALID,97.1964,VALID,0.0169808,VALID,19.6943,VALID,128,VALID,0.315789,
2001-04-27, 02:03:00,VALID,916.319,VALID,0,VALID,97.2231,VALID,0,VALID,19.6585,VALID,125,VALID,0.52426,
2001-04-27, 02:04:00,VALID,916.303,VALID,0,VALID,97.265,VALID,0.0339617,VALID,19.6299,VALID,124,VALID,0.74082,
2001-04-27, 02:05:00,VALID,916.3,VALID,0,VALID,97.3413,VALID,0.0339617,VALID,19.6036,VALID,123,VALID,0.614104,
2001-04-27, 02:06:00,VALID,916.289,VALID,0,VALID,97.4164,VALID,0.0169808,VALID,19.5809,VALID,123,VALID,0.351563,
2001-04-27, 02:07:00,VALID,916.286,VALID,0,VALID,97.5219,VALID,0.0169808,VALID,19.5747,VALID,123,VALID,0.0637336,
2001-04-27, 02:08:00,VALID,916.274,VALID,0,VALID,97.6122,VALID,-0.0169808,VALID,19.5785,VALID,123,VALID,0.266602,
2001-04-27, 02:09:00,VALID,916.265,VALID,0,VALID,97.6122,VALID,-0.0679233,VALID,19.5596,VALID,123,VALID,0.259252,
2001-04-27, 02:10:00,VALID,916.255,VALID,0,VALID,97.6224,VALID,-0.101885,VALID,19.5531,VALID,123,VALID,0.344572,
2001-04-27, 02:11:00,VALID,916.252,VALID,0,VALID,97.6236,VALID,-0.101885,VALID,19.5538,VALID,123,VALID,0.358964,
2001-04-27, 02:12:00,VALID,916.235,VALID,0,VALID,97.6529,VALID,-0.0679233,VALID,19.5568,VALID,123,VALID,0.550781,
2001-04-27, 02:13:00,VALID,916.218,VALID,0,VALID,97.6808,VALID,-0.0849042,VALID,19.5697,VALID,123,VALID,0.493627,
2001-04-27, 02:14:00,VALID,916.217,VALID,0,VALID,97.6033,VALID,-0.0849042,VALID,19.5832,VALID,124,VALID,0.635617,
2001-04-27, 02:15:00,VALID,916.202,VALID,0,VALID,97.527,VALID,-0.0849042,VALID,19.5765,VALID,128,VALID,0.622327,
2001-04-27, 02:16:00,VALID,916.17,VALID,0,VALID,97.4837,VALID,-0.0849042,VALID,19.5859,VALID,138,VALID,0.631445,
2001-04-27, 02:17:00,VALID,916.151,VALID,0,VALID,97.4138,VALID,-0.0849042,VALID,19.5891,VALID,139,VALID,0.573602,
2001-04-27, 02:18:00,VALID,916.132,VALID,0,VALID,97.41,VALID,-0.0849042,VALID,19.5894,VALID,132,VALID,0.437706,
2001-04-27, 02:19:00,VALID,916.132,VALID,0,VALID,97.4265,VALID,-0.0849042,VALID,19.5861,VALID,113,VALID,0.493215,
2001-04-27, 02:20:00,VALID,916.105,VALID,0,VALID,97.4405,VALID,-0.0679233,VALID,19.5665,VALID,102,VALID,0.382227,
2001-04-27, 02:21:00,VALID,916.07,VALID,0,VALID,97.4609,VALID,-0.0679233,VALID,19.5509,VALID,102,VALID,0.149671,
2001-04-27, 02:22:00,VALID,916.051,VALID,0,VALID,97.5321,VALID,-0.101885,VALID,19.5446,VALID,102,VALID,0.0739183,
2001-04-27, 02:23:00,VALID,916.029,VALID,0,VALID,97.6211,VALID,-0.0679233,VALID,19.5238,VALID,102,VALID,0.238281,
2001-04-27, 02:24:00,VALID,916.022,VALID,0,VALID,97.6452,VALID,0.0339617,VALID,19.5233,VALID,109,VALID,0.0890625,
2001-04-27, 02:25:00,VALID,916.014,VALID,0,VALID,97.6618,VALID,0,VALID,19.5166,VALID,120,VALID,0.457237,
2001-04-27, 02:26:00,VALID,916.006,VALID,0,VALID,97.4837,VALID,0.0169808,VALID,19.5228,VALID,121,VALID,0.444901,
2001-04-27, 02:27:00,VALID,916.016,VALID,0,VALID,97.0807,VALID,0.0679233,VALID,19.5645,VALID,142,VALID,0.573396,
2001-04-27, 02:28:00,VALID,916.009,VALID,0,VALID,96.4779,VALID,0.0509425,VALID,19.6195,VALID,152,VALID,0.723242,
2001-04-27, 02:29:00,VALID,916.008,VALID,0,VALID,95.8332,VALID,0.0169808,VALID,19.7171,VALID,168,VALID,0.848273,
2001-04-27, 02:30:00,VALID,916.004,VALID,0,VALID,95.4695,VALID,0.0509425,VALID,19.7745,VALID,178,VALID,0.851963,
2001-04-27, 02:31:00,VALID,916.011,VALID,0,VALID,95.4606,VALID,0.0169808,VALID,19.8036,VALID,181,VALID,0.729646,
2001-04-27, 02:32:00,VALID,916.016,VALID,0,VALID,95.5471,VALID,0.0679233,VALID,19.8006,VALID,176,VALID,0.400195,
2001-04-27, 02:33:00,VALID,916.036,VALID,0,VALID,95.7505,VALID,0.0679233,VALID,19.7708,VALID,175,VALID,0.289063,
2001-04-27, 02:34:00,VALID,916.062,VALID,0,VALID,95.9693,VALID,0.0169808,VALID,19.736,VALID,172,VALID,0.403988,
2001-04-27, 02:35:00,VALID,916.065,VALID,0,VALID,96.1765,VALID,0.0169808,VALID,19.7136,VALID,159,VALID,0.581414,
2001-04-27, 02:36:00,VALID,916.093,VALID,0,VALID,96.3507,VALID,0,VALID,19.6791,VALID,147,VALID,0.608398,
2001-04-27, 02:37:00,VALID,916.108,VALID,0,VALID,96.5389,VALID,0,VALID,19.6264,VALID,151,VALID,0.471289,
2001-04-27, 02:38:00,VALID,916.122,VALID,0,VALID,96.6305,VALID,0,VALID,19.6105,VALID,164,VALID,0.545272,
2001-04-27, 02:39:00,VALID,916.124,VALID,0,VALID,96.7767,VALID,0.0169808,VALID,19.5713,VALID,183,VALID,0.843544,
2001-04-27, 02:40:00,VALID,916.147,VALID,0,VALID,96.9281,VALID,0,VALID,19.5454,VALID,183,VALID,0.722461,
2001-04-27, 02:41:00,VALID,916.14,VALID,0,VALID,97.0616,VALID,0.0169808,VALID,19.5298,VALID,181,VALID,0.630757,
2001-04-27, 02:42:00,VALID,916.125,VALID,0,VALID,97.1493,VALID,0.0509425,VALID,19.5163,VALID,171,VALID,0.527549,
2001-04-27, 02:43:00,VALID,916.128,VALID,0,VALID,97.2892,VALID,0.0169808,VALID,19.497,VALID,167,VALID,0.788651,
2001-04-27, 02:44:00,VALID,916.128,VALID,0,VALID,97.4545,VALID,0,VALID,19.4937,VALID,174,VALID,0.804688,
2001-04-27, 02:45:00,VALID,916.115,VALID,0,VALID,97.6134,VALID,0.0339617,VALID,19.494,VALID,182,VALID,0.814556,
2001-04-27, 02:46:00,VALID,916.105,VALID,0,VALID,97.6986,VALID,0.0169808,VALID,19.491,VALID,192,VALID,0.767027,
2001-04-27, 02:47:00,VALID,916.112,VALID,0,VALID,97.8474,VALID,0.0509425,VALID,19.4972,VALID,192,VALID,0.978207,
2001-04-27, 02:48:00,VALID,916.111,VALID,0,VALID,97.9911,VALID,0.0339617,VALID,19.4937,VALID,194,VALID,0.856055,
2001-04-27, 02:49:00,VALID,916.1,VALID,0,VALID,98.0674,VALID,0.0339617,VALID,19.484,VALID,200,VALID,1,
2001-04-27, 02:50:00,VALID,916.092,VALID,0,VALID,98.1717,VALID,0.0679233,VALID,19.4875,VALID,200,VALID,0.944285,
2001-04-27, 02:51:00,VALID,916.095,VALID,0,VALID,98.3065,VALID,0.0339617,VALID,19.4711,VALID,209,VALID,0.445724,
2001-04-27, 02:52:00,VALID,916.081,VALID,0,VALID,98.4018,VALID,0.0339617,VALID,19.4778,VALID,204,VALID,0.462109,
2001-04-27, 02:53:00,VALID,916.063,VALID,0,VALID,98.4781,VALID,0.0169808,VALID,19.4716,VALID,199,VALID,0.644737,
2001-04-27, 02:54:00,VALID,916.055,VALID,0,VALID,98.5315,VALID,0,VALID,19.4555,VALID,197,VALID,0.570112,
2001-04-27, 02:55:00,VALID,916.042,VALID,0,VALID,98.59,VALID,0,VALID,19.4592,VALID,197,VALID,0.783923,
2001-04-27, 02:56:00,VALID,916.041,VALID,0,VALID,98.6485,VALID,0,VALID,19.4691,VALID,195,VALID,0.959375,
2001-04-27, 02:57:00,VALID,916.03,VALID,0,VALID,98.66,VALID,-0.0509425,VALID,19.4592,VALID,192,VALID,0.925987,
2001-04-27, 02:58:00,VALID,916.027,VALID,0,VALID,98.6943,VALID,-0.0169808,VALID,19.4626,VALID,185,VALID,1.03968,
2001-04-27, 02:59:00,VALID,916.025,VALID,0,VALID,98.7121,VALID,-0.0339617,VALID,19.4599,VALID,192,VALID,1.00432,
2001-04-27, 03:00:00,VALID,916.004,VALID,0,VALID,98.7083,VALID,-0.0339617,VALID,19.4731,VALID,189,VALID,1.02715,
2001-04-27, 03:01:00,VALID,916.015,VALID,0,VALID,98.7172,VALID,-0.0339617,VALID,19.4659,VALID,191,VALID,0.924342,
2001-04-27, 03:02:00,VALID,916.004,VALID,0,VALID,98.7147,VALID,-0.0339617,VALID,19.4756,VALID,209,VALID,0.825321,
2001-04-27, 03:03:00,VALID,916.003,VALID,0,VALID,98.7019,VALID,-0.0339617,VALID,19.479,VALID,203,VALID,0.906867,
2001-04-27, 03:04:00,VALID,915.987,VALID,0,VALID,98.693,VALID,0,VALID,19.4853,VALID,207,VALID,1.04395,
2001-04-27, 03:05:00,VALID,915.988,VALID,0,VALID,98.674,VALID,-0.0169808,VALID,19.4882,VALID,215,VALID,0.825247,
2001-04-27, 03:06:00,VALID,915.999,VALID,0,VALID,98.6422,VALID,-0.0339617,VALID,19.5014,VALID,211,VALID,0.788651,
2001-04-27, 03:07:00,VALID,916.001,VALID,0,VALID,98.6193,VALID,-0.0509425,VALID,19.5014,VALID,211,VALID,0.717311,
2001-04-27, 03:08:00,VALID,915.98,VALID,0,VALID,98.529,VALID,-0.0679233,VALID,19.5109,VALID,216,VALID,0.866016,
2001-04-27, 03:09:00,VALID,915.954,VALID,0,VALID,98.4502,VALID,0,VALID,19.5176,VALID,217,VALID,0.849712,
2001-04-27, 03:10:00,VALID,915.945,VALID,0,VALID,98.3739,VALID,-0.0169808,VALID,19.5404,VALID,215,VALID,0.835737,
2001-04-27, 03:11:00,VALID,915.916,VALID,0,VALID,98.2823,VALID,-0.0169808,VALID,19.5598,VALID,223,VALID,0.444901,
2001-04-27, 03:12:00,VALID,915.892,VALID,0,VALID,98.2137,VALID,-0.0339617,VALID,19.5499,VALID,204,VALID,0.4125,
2001-04-27, 03:13:00,VALID,915.882,VALID,0,VALID,98.1399,VALID,-0.0339617,VALID,19.563,VALID,197,VALID,0.592928,
2001-04-27, 03:14:00,VALID,915.862,VALID,0,VALID,98.0318,VALID,-0.0679233,VALID,19.5598,VALID,193,VALID,0.932771,
2001-04-27, 03:15:00,VALID,915.871,VALID,0,VALID,97.9339,VALID,-0.0169808,VALID,19.5697,VALID,186,VALID,0.824836,
2001-04-27, 03:16:00,VALID,915.853,VALID,0,VALID,97.8373,VALID,0,VALID,19.5561,VALID,170,VALID,0.767773,
2001-04-27, 03:17:00,VALID,915.867,VALID,0,VALID,97.8131,VALID,0,VALID,19.5524,VALID,165,VALID,0.656456,
2001-04-27, 03:18:00,VALID,915.868,VALID,0,VALID,97.8563,VALID,0,VALID,19.5598,VALID,174,VALID,0.73097,
2001-04-27, 03:19:00,VALID,915.879,VALID,0,VALID,97.8945,VALID,-0.0509425,VALID,19.5531,VALID,189,VALID,0.952714,
2001-04-27, 03:20:00,VALID,915.873,VALID,0,VALID,97.864,VALID,-0.0169808,VALID,19.563,VALID,204,VALID,1.13145,
2001-04-27, 03:21:00,VALID,915.867,VALID,0,VALID,97.8411,VALID,-0.0339617,VALID,19.5526,VALID,204,VALID,0.912623,
2001-04-27, 03:22:00,VALID,915.88,VALID,0,VALID,97.7889,VALID,0,VALID,19.5598,VALID,200,VALID,0.862459,
2001-04-27, 03:23:00,VALID,915.88,VALID,0,VALID,97.7419,VALID,-0.0339617,VALID,19.5593,VALID,201,VALID,0.821546,
2001-04-27, 03:24:00,VALID,915.87,VALID,0,VALID,97.6974,VALID,0,VALID,19.5593,VALID,197,VALID,1.05449,
2001-04-27, 03:25:00,VALID,915.875,VALID,0,VALID,97.6376,VALID,-0.0169808,VALID,19.5693,VALID,198,VALID,0.992804,
2001-04-27, 03:26:00,VALID,915.862,VALID,0,VALID,97.6033,VALID,-0.0339617,VALID,19.5688,VALID,191,VALID,0.659655,
2001-04-27, 03:27:00,VALID,915.858,VALID,0,VALID,97.5791,VALID,-0.0169808,VALID,19.5787,VALID,191,VALID,0.816201,
2001-04-27, 03:28:00,VALID,915.833,VALID,0,VALID,97.5817,VALID,-0.0509425,VALID,19.5693,VALID,198,VALID,0.688281,
2001-04-27, 03:29:00,VALID,915.806,VALID,0,VALID,97.5931,VALID,-0.0509425,VALID,19.573,VALID,202,VALID,0.912007,
2001-04-27, 03:30:00,VALID,915.8,VALID,0,VALID,97.6173,VALID,-0.0509425,VALID,19.563,VALID,209,VALID,0.821957,
2001-04-27, 03:31:00,VALID,915.776,VALID,0,VALID,97.6363,VALID,-0.0339617,VALID,19.5727,VALID,218,VALID,0.913035,
2001-04-27, 03:32:00,VALID,915.777,VALID,0,VALID,97.6529,VALID,-0.0339617,VALID,19.57,VALID,212,VALID,0.938672,
2001-04-27, 03:33:00,VALID,915.764,VALID,0,VALID,97.6516,VALID,-0.0339617,VALID,19.5501,VALID,220,VALID,1.11842,
2001-04-27, 03:34:00,VALID,915.751,VALID,0,VALID,97.6719,VALID,-0.0339617,VALID,19.5466,VALID,221,VALID,1.04828,
2001-04-27, 03:35:00,VALID,915.727,VALID,0,VALID,97.6936,VALID,-0.0849042,VALID,19.5367,VALID,210,VALID,0.763775,